DELTA 1 DEB, 21292

Orbit data source: Space-Track

DELTA 1 DEB, 21292 is space debris in SSO originally from a launch on Thu, 12 Jun 1975 UTC launched from the Air Force Western Test Range (AFWTR). Debris objects in space refer to the collection of defunct objects orbiting the Earth. Examples of debris include non-operational satellites, rocket bodies, and fragments generated from explosions, collisions, or faulty payload assembly.

Loading next visibility...
Identifier
21292, 1975-052AD
Orbit
SSO
Country
Flag of USUS
Related business
Manufacturer
Unknown
Mission
Spacecraft
Bus & Motor
Unknown
Mass
Unknown
Launch date (UTC)
1975-06-12 (51 years ago)
Launch vehicle
Unknown
Launch site
Air Force Western Test Range (AFWTR)
Object type
Payload
Rocket body
Debris
Shape & HBR
Unknown shape, 0.1 m
Radar Cross Section
Medium (>0.1 m² and <1 m²)

Expand to show TLE details & history
Last TLE update: 2 days ago

TLE from 2 days ago
0 DELTA 1 DEB
1 21292U 75052AD  26167.62794175  .00000213  00000-0  29816-3 0  9993
2 21292  99.7763  43.3040 0224614  80.0229 337.8696 13.58642107737368
Epoch: 2026-06-16T15:04Z
TLE epoch observation values (Epoch: 2026-06-16T15:04:14.167Z)
Latitude
55.74232°
Longitude
-102.22776°
Altitude
895.969 km
Speed
7.486 km/s
True Right ascension
01h 54m 54s
True Declination
55° 35' 07"
Sunlit
Object was in daylight at epoch
Visualization orbit readout
Latitude
Unknown
Longitude
Unknown
Altitude
Unknown
Speed
Unknown
Apparent Right ascension
Unknown
Apparent Declination
Unknown
Sunlit
N/A
Visualization observer readout
Local Sidereal Time
21:51:33
Azimuth
Unknown
Elevation
Unknown
Doppler factor
Unknown
Orbital elements
Apogee altitude
1,204.498 km
Perigee altitude
871.348 km
Semi-major axis
7,416.06 km
Eccentricity
0.02246
Inclination
99.7763°
RAAN
43.304°
Arg. of periapsis
80.0229°
True anomaly
336.87416°
Mean anomaly
337.8696°
Eccentric anomaly
337.37451°
Mean motion
3.39847 °/min
Orbital period
105.93 mins
BSTAR
0.00029816
Loading maneuver chart data...
Computing Atmospheric mass density...
Loading historical data...
Loading historical data...
Loading historical data...
Loading historical data...
Loading historical data...
Loading historical data...
Loading historical data...

Documentation

Showing up to 5 results
|